FW4207 Weather Reports


time (UTC)temp
C
wind
direction
speed
KPH
gust
KPH
rain 1hr
cm
rain 24hr
cm
rain mn
cm
humidity
%
barometer
mb
20260507005244 11 0 0.0 0.0 0.00 1.60 0.69 44 1016.0
20260507004258 11 0 0.0 6.4 0.00 1.65 0.69 43 1015.8
20260507002120 11 0 1.6 8.0 0.00 1.78 0.69 39 1015.6
20260507000033 11 0 0.0 4.8 0.00 1.88 0.69 40 1015.5
20260506233910 12 0 0.0 3.2 0.00 1.93 0.69 40 1015.4
20260506232839 12 0 1.6 8.0 0.00 1.98 0.69 38 1015.4
20260506231847 12 0 1.6 17.7 0.00 2.03 0.69 37 1015.6
20260506225652 12 0 1.6 17.7 0.00 2.08 0.69 37 1015.8
20260506224647 12 0 1.6 8.0 0.00 2.13 0.69 37 1015.9
20260506223624 12 0 0.0 8.0 0.00 2.13 0.69 37 1015.9
20260506222626 12 0 1.6 6.4 0.00 2.13 0.69 37 1015.7
20260506221641 12 0 1.6 11.3 0.00 2.16 0.69 35 1015.7
20260506215539 12 0 3.2 12.9 0.00 2.24 0.69 34 1015.5
20260506214517 12 0 3.2 14.5 0.00 2.24 0.69 37 1015.4
20260506213510 12 0 1.6 19.3 0.00 2.24 0.69 38 1015.2
20260506212505 12 0 3.2 19.3 0.00 2.26 0.69 34 1015.0
20260506211456 13 0 3.2 12.9 0.00 2.29 0.69 37 1015.1
20260506210502 13 0 3.2 11.3 0.00 2.34 0.69 38 1015.0
20260506205508 13 0 1.6 11.3 0.00 2.44 0.69 38 1015.1
20260506204526 13 0 1.6 17.7 0.00 2.64 0.69 37 1015.0
20260506203544 13 0 3.2 17.7 0.00 2.67 0.69 38 1014.9
20260506201406 13 0 3.2 16.1 0.00 2.69 0.69 37 1014.9
20260506200423 13 0 4.8 16.1 0.00 2.69 0.69 36 1014.8
20260506195434 13 0 3.2 16.1 0.00 2.69 0.69 39 1014.8
20260506194419 12 0 3.2 14.5 0.00 2.69 0.69 40 1014.9
20260506193400 12 0 1.6 11.3 0.00 2.69 0.69 40 1014.9
20260506192405 13 0 4.8 12.9 0.00 2.69 0.69 39 1014.9
20260506191333 13 0 1.6 12.9 0.00 2.69 0.69 39 1014.8
20260506190322 13 0 1.6 12.9 0.00 2.69 0.69 42 1014.8
20260506184141 13 0 4.8 17.7 0.00 2.69 0.69 39 1014.6
20260506183202 13 0 3.2 17.7 0.00 2.69 0.69 35 1014.7
20260506182219 13 0 4.8 16.1 0.00 2.69 0.69 37 1014.6
20260506174935 14 0 4.8 16.1 0.00 2.69 0.69 35 1014.6
20260506173914 14 0 4.8 16.1 0.00 2.69 0.69 37 1014.7
20260506172931 14 0 3.2 16.1 0.00 2.69 0.69 38 1014.6
20260506171905 15 0 3.2 14.5 0.00 2.69 0.69 39 1014.7
20260506170853 15 0 3.2 14.5 0.00 2.69 0.69 38 1014.5
20260506165845 15 0 1.6 14.5 0.00 2.69 0.69 41 1014.4
20260506164859 14 0 1.6 14.5 0.00 2.69 0.69 40 1014.6
20260506163904 14 0 4.8 14.5 0.00 2.69 0.69 38 1014.7
20260506162903 13 0 1.6 12.9 0.00 2.69 0.69 41 1014.6
20260506161926 13 0 4.8 12.9 0.00 2.69 0.69 40 1014.5
20260506160858 13 0 3.2 17.7 0.00 2.69 0.69 44 1014.7
20260506155907 13 0 6.4 16.1 0.00 2.69 0.69 40 1014.5
20260506154927 13 0 3.2 12.9 0.00 2.69 0.69 41 1014.2
20260506153942 13 0 3.2 16.1 0.00 2.69 0.69 41 1014.3
20260506152925 12 0 3.2 16.1 0.00 2.69 0.69 41 1014.0
20260506151935 12 0 3.2 17.7 0.00 2.69 0.69 44 1013.8
20260506150951 11 0 4.8 17.7 0.00 2.69 0.69 45 1013.8
20260506145928 11 0 3.2 12.9 0.00 2.69 0.69 46 1013.8
20260506143805 10 0 3.2 12.9 0.00 2.69 0.69 48 1013.7
20260506142745 10 0 1.6 12.9 0.00 2.69 0.69 48 1013.7
20260506141740 9 0 3.2 12.9 0.00 2.69 0.69 49 1013.5
20260506140716 8 0 4.8 17.7 0.00 2.69 0.69 51 1013.3
20260506135644 8 0 3.2 19.3 0.00 2.69 0.69 52 1013.2
20260506134645 8 0 3.2 19.3 0.00 2.69 0.69 54 1013.1
20260506133650 8 0 3.2 14.5 0.00 2.69 0.69 55 1013.0
20260506132618 7 0 1.6 12.9 0.00 2.69 0.69 56 1013.0
20260506131601 7 0 1.6 14.5 0.00 2.69 0.69 58 1013.1
20260506130527 7 0 1.6 14.5 0.00 2.69 0.69 59 1012.7
20260506125458 7 0 1.6 11.3 0.00 2.69 0.69 60 1012.7
20260506124440 6 0 0.0 6.4 0.00 2.69 0.69 61 1012.7
20260506123504 6 0 1.6 6.4 0.00 2.69 0.69 62 1012.5
20260506122516 6 0 1.6 12.9 0.00 2.69 0.69 62 1012.3
20260506121507 6 0 1.6 12.9 0.00 2.69 0.69 63 1012.3
20260506120515 6 0 0.0 6.4 0.00 2.69 0.69 64 1012.0
20260506115502 6 0 1.6 14.5 0.00 2.69 0.69 64 1011.8
20260506114445 6 0 3.2 14.5 0.00 2.69 0.69 65 1011.9
20260506113411 6 0 1.6 6.4 0.00 2.69 0.69 65 1011.3
20260506112421 6 0 1.6 14.5 0.00 2.69 0.69 65 1011.1
20260506111418 6 0 1.6 14.5 0.00 2.69 0.69 65 1010.8
20260506110402 6 0 1.6 11.3 0.00 2.69 0.69 65 1010.7
20260506105421 6 0 1.6 16.1 0.00 2.69 0.69 66 1010.5
20260506103255 6 0 1.6 6.4 0.00 2.69 0.69 66 1010.4
20260506102305 6 0 1.6 12.9 0.00 2.69 0.69 66 1010.0
20260506101237 6 0 3.2 17.7 0.00 2.69 0.69 66 1010.4
20260506100241 6 0 3.2 17.7 0.00 2.69 0.69 66 1010.5
20260506095252 7 0 1.6 12.9 0.00 2.69 0.69 66 1010.0
20260506093210 6 0 0.0 4.8 0.00 2.69 0.69 66 1009.3
20260506092152 6 0 1.6 4.8 0.00 2.69 0.69 66 1009.5
20260506090105 7 0 1.6 8.0 0.00 2.69 0.69 66 1009.4
20260506085121 7 0 1.6 6.4 0.10 2.69 0.69 66 1009.5
20260506082921 7 0 3.2 12.9 0.15 2.67 0.69 66 1009.7
20260506081851 7 0 3.2 19.3 0.46 2.64 0.66 66 1009.8
20260506072643 7 0 3.2 16.1 0.00 2.46 0.48 66 1009.0
20260506071643 7 0 3.2 16.1 0.00 2.46 0.48 66 1009.0
20260506070639 7 0 3.2 16.1 0.00 2.44 0.46 66 1009.3
20260506062431 7 0 1.6 12.9 0.15 2.34 0.33 65 1009.2
20260506061450 7 0 1.6 11.3 0.15 2.31 0.33 65 1009.1
20260506051322 7 0 1.6 8.0 0.10 2.13 0.15 65 1009.4
20260506050312 7 0 1.6 19.3 0.23 2.13 0.15 65 1009.3
20260506044241 7 0 1.6 12.9 0.33 2.06 0.08 65 1009.7
20260506043243 8 0 3.2 11.3 0.00 1.98 0.03 65 1009.8
20260506042306 8 0 1.6 11.3 0.00 1.98 0.00 65 1009.6
20260506041247 8 0 1.6 6.4 0.00 1.98 0.00 65 1009.5
20260506040245 8 0 1.6 6.4 0.00 1.98 0.00 65 1009.4
20260506034138 8 0 1.6 8.0 0.13 1.98 1.96 65 1009.5
20260506033139 8 0 1.6 8.0 0.15 1.96 1.96 65 1009.4
20260506032157 8 0 1.6 6.4 0.15 1.93 1.93 64 1009.6
20260506031126 8 0 1.6 8.0 0.25 1.85 1.91 64 1009.8
20260506030144 8 0 1.6 8.0 0.33 1.83 1.85 64 1010.0
20260506025111 9 0 1.6 8.0 0.15 1.78 1.80 64 1010.0
20260506021751 9 0 1.6 16.1 0.15 1.65 1.65 64 1010.0
20260506015607 10 0 3.2 14.5 0.30 1.57 1.57 62 1009.8
20260506014543 10 0 3.2 16.1 0.43 1.50 1.52 62 1009.9
20260506013559 10 0 4.8 17.7 0.41 1.47 1.45 61 1009.8
20260506012533 10 0 4.8 17.7 0.33 1.40 1.40 59 1010.0
20260506011518 10 0 3.2 14.5 0.33 1.32 1.32 56 1009.4
20260506010506 11 0 3.2 14.5 1.55 1.22 1.27 55 1009.2